Location: La Chapelle
(48.3135°N, 1.3085°W)
Time: 20:53:17
(UTC+00:00)

Cosmos 1666 - Pass Details

Date: 03 March 2021
Orbit: 497 x 518 km, 82.5° (Epoch: 14 April)

Event Time Altitude Azimuth Distance (km) Brightness Sun altitude
Rises 18:29:31 0° 142° (SE) 2,576 5.9 -6.9°
Reaches altitude 10° 18:32:30 10° 115° (ESE) 1,701 4.8 -7.4°
Maximum altitude 18:34:21 13° 85° (E) 1,502 4.4 -7.7°
Drops below altitude 10° 18:36:13 10° 55° (NE) 1,712 4.8 -8.0°
Sets 18:39:14 0° 28° (NNE) 2,606 6.0 -8.5°
